KD7RJ Weather Reports


time (UTC)temp
F
wind
direction
speed
knots
gust
knots
rain 1hr
in
rain 24hr
in
rain mn
in
humidity
%
barometer
mb
20260504231558 76 227 1.7 6.1 0.00 0.02 0.00 56 1009.6
20260504230103 76 240 0.0 6.1 0.00 0.02 0.00 56 1009.8
20260504224553 77 232 0.0 4.3 0.00 0.02 0.00 54 1009.9
20260504223038 76 282 0.9 4.3 0.00 0.02 0.02 57 1010.1
20260504221532 74 244 0.0 6.1 0.00 0.02 0.02 58 1010.4
20260504220020 75 271 1.7 6.1 0.00 0.02 0.02 58 1010.6
20260504214520 73 250 0.9 6.1 0.00 0.02 0.02 60 1010.7
20260504213113 73 188 2.6 7.0 0.00 0.02 0.02 60 1010.8
20260504211556 72 218 0.0 4.3 0.00 0.02 0.02 63 1011.1
20260504210038 71 198 0.0 5.2 0.00 0.02 0.02 63 1011.3
20260504204537 69 207 0.0 6.1 0.00 0.02 0.02 64 1011.5
20260504203020 68 182 0.0 7.8 0.00 0.02 0.02 66 1011.8
20260504201521 67 196 3.5 7.8 0.00 0.02 0.02 68 1011.9
20260504200002 66 186 0.9 5.2 0.00 0.02 0.02 69 1012.0
20260504194501 65 169 0.0 6.1 0.00 0.02 0.02 71 1012.1
20260504193041 64 181 2.6 7.0 0.00 0.02 0.02 72 1012.2
20260504191548 64 225 0.0 7.0 0.00 0.02 0.02 74 1012.2
20260504190023 63 159 2.6 6.1 0.00 0.02 0.02 74 1012.4
20260504184524 62 186 2.6 6.1 0.00 0.02 0.02 75 1012.7
20260504183005 62 169 2.6 7.0 0.00 0.02 0.02 76 1012.6
20260504181505 62 256 1.7 4.3 0.00 0.02 0.02 76 1012.4
20260504180052 61 182 0.9 6.1 0.00 0.02 0.02 76 1012.6
20260504174546 61 161 2.6 6.1 0.00 0.02 0.02 78 1012.6
20260504173031 60 212 1.7 6.1 0.00 0.02 0.02 79 1012.6
20260504171530 59 194 1.7 7.0 0.00 0.02 0.02 81 1012.5
20260504150108 56 180 2.6 6.1 0.00 0.02 0.02 88 1011.8
20260504120110 57 160 1.7 7.8 0.00 0.02 0.02 82 1009.5
20260504081500 64 342 0.0 0.0 0.00 0.02 0.02 63 1007.1
20260504044511 79 32 0.9 7.0 0.00 0.02 0.02 37 1006.2
20260504043010 79 38 0.9 7.0 0.00 0.02 0.02 36 1006.0
20260504041550 80 30 0.9 7.0 0.00 0.02 0.02 35 1005.9
20260504040049 80 24 1.7 7.8 0.00 0.02 0.02 35 1005.8
20260504034534 81 16 0.9 8.7 0.00 0.02 0.02 36 1005.7
20260504033041 81 29 1.7 7.0 0.00 0.02 0.02 36 1005.5
20260504031508 83 22 1.7 6.1 0.00 0.02 0.02 35 1005.5
20260504030002 84 40 0.0 7.0 0.00 0.02 0.02 35 1005.4
20260504024554 85 33 0.9 6.1 0.00 0.02 0.02 35 1005.4
20260504023038 86 22 2.6 10.4 0.00 0.03 0.02 33 1005.2
20260504021517 87 26 0.9 6.1 0.01 0.03 0.02 32 1005.3
20260504020015 88 360 0.0 9.6 0.02 0.03 0.02 31 1005.3
20260504014600 90 37 0.0 5.2 0.02 0.03 0.02 30 1005.4
20260504013106 91 38 0.9 7.8 0.02 0.03 0.02 28 1005.4
20260504011551 92 21 1.7 10.4 0.01 0.02 0.01 25 1005.6
20260504010049 92 44 1.7 7.0 0.00 0.01 0.00 27 1005.7
20260504004600 93 15 2.6 7.8 0.00 0.01 0.00 27 1005.9
20260504003045 93 61 3.5 8.7 0.00 0.01 0.00 26 1006.0
20260504001543 94 24 1.7 5.2 0.00 0.01 0.00 24 1006.0
20260504000042 95 10 0.9 7.8 0.00 0.01 0.00 23 1006.0
20260503234521 94 355 0.9 6.1 0.00 0.01 0.00 23 1006.2
20260503233017 95 38 4.3 7.8 0.00 0.01 0.00 21 1006.3